Location: Hamilton
(37.7830°S, 175.2830°E)
Time: 13:04:12
(UTC+13:00)

Mayak - Pass Details

Date: 24 January 2019
Orbit: 582 x 604 km, 97.6° (Epoch: 21 February)

Event Time Altitude Azimuth Distance (km) Brightness Sun altitude
Exits shadow 22:46:25 23° 115° (ESE) 1,269 0.3 -21.1°
Drops below altitude 10° 22:49:36 10° 163° (SSE) 1,943 1.8 -21.5°
Sets 22:52:06 0° 177° (S) 2,857 3.0 -21.9°
